SCP
1 1 1 1 1 1 1 1 2 1 1 1 1 1 1 1 1 1 1 1 1 1 1 1 1 1 1 1 1 1 1 1 1 1 1 1 1 1 1 1 0 0 0
1 1 1 1 1 1 1 2 2 1 1 1 1 1 1 1 1 1 1 1 1 1 1 1 1 1 1 0 0 1 1 1 1 1 1 1 1 1 1 1 0 0 0
1 1 1 1 1 1 1 2 2 1 1 1 1 1 1 1 1 1 1 1 1 1 1 1 1 1 0 0 0 0 0 1 1 1 0 0 1 1 1 1 1 1 0
1 1 1 1 1 1 1 1 1 1 1 1 1 1 1 1 1 1 1 1 1 1 1 1 1 1 0 0 0 0 0 1 1 0 0 0 1 1 1 1 1 1 1
1 1 1 1 1 2 2 2 1 1 1 1 1 1 1 1 1 1 1 1 1 1 1 1 1 1 0 0 0 0 1 1 0 0 0 0 1 1 1 1 1 1 1
2 2 2 1 2 2 2 2 2 1 1 1 1 1 1 1 1 1 1 1 1 1 0 1 1 1 0 0 0 0 0 0 0 0 0 0 1 2 2 2 1 1 1
2 2 2 2 2 2 2 2 2 2 1 1 1 1 1 1 1 0 1 1 1 1 0 1 1 1 0 0 0 0 0 1 1 0 1 1 1 2 2 2 2 1 1
3 2 2 2 2 2 2 2 2 2 1 1 1 1 1 1 1 1 0 0 1 1 0 0 0 0 1 1 1 1 1 1 1 1 1 1 1 2 3 3 2 1 1
3 2 2 2 2 2 2 2 2 2 1 1 1 1 1 1 1 1 1 1 1 1 1 0 0 1 1 1 1 1 1 1 1 1 1 1 1 2 3 3 2 1 1
2 2 2 2 1 1 2 1 1 1 1 1 1 1 1 1 1 1 1 1 1 1 1 1 1 1 1 1 1 1 1 1 1 1 1 1 2 2 3 2 2 2 2
2 2 2 2 1 1 1 1 1 1 1 1 1 1 1 1 1 1 1 1 1 1 1 1 1 1 1 2 2 2 1 1 1 1 1 2 2 2 2 2 2 2 2
2 2 2 2 1 1 1 1 1 1 1 1 1 1 1 1 1 1 1 1 1 1 1 1 1 1 1 1 2 2 1 1 1 1 1 2 2 2 2 2 2 2 2
2 1 1 2 2 1 1 1 1 1 1 1 1 1 1 1 1 1 1 1 1 1 1 1 1 1 1 1 1 1 1 1 1 1 1 2 2 2 2 2 2 1 1
1 1 1 2 2 2 1 1 1 1 1 1 1 1 1 1 1 1 1 1 1 1 1 1 1 1 1 1 1 1 1 1 0 1 1 1 2 2 2 2 2 1 1
1 1 1 2 2 2 1 1 1 1 1 1 1 1 1 1 1 1 1 1 1 1 1 1 1 1 1 1 1 1 1 1 1 1 1 1 2 2 2 2 2 1 1
1 1 1 2 2 2 1 1 1 1 1 2 2 2 1 1 1 1 1 1 1 1 1 1 1 1 1 1 1 1 1 1 1 2 2 1 2 2 2 2 2 2 2
2 2 2 2 2 2 1 1 1 1 2 3 4 3 2 1 1 1 1 1 1 1 1 2 2 1 1 1 1 1 1 1 1 2 2 1 1 2 2 2 2 2 2
3 3 3 2 2 2 2 2 1 2 2 3 4 3 2 1 1 2 2 2 1 1 2 2 2 2 2 2 2 2 2 1 1 1 2 2 2 1 1 2 2 2 2
4 4 4 3 3 3 2 2 2 2 2 3 4 3 2 2 2 2 3 2 2 2 2 2 2 2 2 2 2 2 2 2 2 2 2 2 2 1 1 1 2 2 2
4 5 5 4 4 3 3 3 3 3 3 3 3 3 3 3 3 3 4 4 3 3 3 3 3 3 3 2 2 2 2 2 2 2 2 2 2 1 1 1 2 2 2
5 5 5 5 5 4 4 4 4 3 3 2 2 2 3 3 4 4 4 4 4 4 3 4 4 3 3 2 2 2 2 2 2 2 2 2 2 1 1 2 2 2 2
5 5 6 6 5 5 5 5 5 4 3 3 3 3 3 3 4 4 4 4 4 4 4 4 5 4 3 3 3 2 2 2 2 2 2 2 2 1 2 2 2 3 3
5 5 6 6 6 5 5 5 5 4 4 4 4 3 3 3 3 3 4 4 4 3 3 4 5 5 4 4 4 3 2 2 2 2 2 2 2 2 2 2 3 3 3
4 5 6 6 6 5 5 4 4 4 4 5 5 5 4 3 3 3 3 4 4 4 4 4 4 5 5 5 4 3 2 2 2 2 2 2 2 2 2 2 2 3 3
5 4 5 6 6 5 5 5 5 5 5 5 6 7 6 4 3 3 3 5 5 5 5 5 5 5 5 4 3 3 2 2 2 2 2 2 2 2 2 2 2 2 3
6 5 5 6 6 6 6 6 6 6 5 6 7 8 7 5 3 3 4 5 6 6 6 6 6 5 5 4 3 2 2 2 2 2 2 2 2 2 2 3 2 2 2
Wind_Speed
10 11 10 10 10 11 11 11 12 11 11 10 10 10 10 10 9 9 9 9 9 10 10 9 9 9 9 9 9 9 8 8 8 9 9 9 9 8 8 8 7 6 9
13 12 11 10 10 11 11 11 11 11 10 10 10 10 10 9 9 9 9 9 9 9 9 9 9 9 9 9 9 8 7 7 8 9 9 8 8 8 7 6 6 5 9
14 12 11 10 11 11 11 11 11 10 10 10 10 10 9 9 9 9 9 9 9 9 9 9 9 9 9 8 8 7 6 7 7 8 8 6 7 9 8 8 8 8 8
13 11 11 11 11 11 11 10 10 10 9 9 9 9 9 8 8 8 8 8 8 8 9 8 8 8 8 8 7 6 5 5 6 6 4 5 6 9 9 8 8 8 7
13 12 12 11 11 10 10 10 9 9 9 9 9 8 8 8 8 8 8 8 8 8 8 8 8 8 7 7 6 5 5 5 5 6 3 4 5 10 10 9 8 8 8
13 13 12 11 11 10 10 10 9 9 8 8 8 8 8 8 8 8 8 8 7 7 7 7 7 7 7 6 5 5 4 4 5 4 3 5 6 9 10 9 9 8 7
12 13 12 11 11 10 9 9 8 8 8 8 8 7 7 7 7 7 7 7 7 6 6 6 6 7 6 5 4 4 4 5 5 3 2 4 7 11 10 9 8 8 7
11 13 12 11 11 10 9 9 8 7 7 7 7 7 7 7 7 7 6 6 6 6 5 5 5 5 5 4 4 4 5 6 4 3 3 5 10 11 10 9 8 8 7
11 11 11 10 9 9 9 9 8 7 7 7 7 7 6 6 7 7 6 6 6 5 5 5 5 5 5 5 5 6 6 7 5 3 3 5 11 12 11 9 8 8 8
10 9 9 9 8 8 8 9 8 8 8 7 7 7 7 7 7 7 7 6 6 6 6 5 6 5 6 6 7 8 8 6 6 3 2 6 12 12 11 9 8 8 8
8 8 7 8 8 6 7 9 8 8 8 7 6 7 6 4 5 6 7 8 8 7 6 6 6 6 6 7 9 9 7 5 5 2 3 9 12 12 11 10 9 8 8
7 6 6 6 6 5 5 6 5 5 5 4 3 4 4 3 2 4 7 9 9 8 6 7 7 6 6 5 7 8 5 6 4 2 5 11 10 11 11 10 9 8 8
6 6 6 6 4 4 3 4 2 2 3 3 4 2 2 1 2 3 3 5 6 6 4 5 6 5 5 4 3 4 5 4 2 2 6 12 11 11 10 10 9 8 9
6 6 6 6 4 3 3 2 2 2 2 2 3 2 2 1 1 1 1 2 2 2 2 2 2 3 3 3 3 4 4 2 1 2 6 11 10 11 10 10 9 8 8
6 6 7 7 5 4 3 0 2 2 2 2 2 1 0 1 1 1 0 0 1 1 2 1 2 2 2 2 3 3 3 2 2 2 4 9 10 10 10 9 9 9 8
6 6 6 7 6 4 3 1 1 1 2 1 1 1 1 1 1 1 0 0 1 0 0 1 2 2 2 2 3 3 3 3 1 2 4 7 10 9 9 9 9 9 9
6 5 6 6 6 5 3 1 1 1 2 1 2 2 1 0 1 0 1 0 1 1 1 1 2 2 2 2 3 3 2 2 2 2 4 4 5 7 8 8 8 8 8
6 5 4 4 5 4 3 1 1 0 0 1 1 1 1 0 0 0 1 1 1 1 1 1 1 1 2 2 2 3 2 2 3 3 3 4 4 5 7 9 9 9 9
6 5 4 3 4 3 3 2 1 0 0 0 1 1 1 0 1 1 1 1 2 1 1 2 0 1 2 2 3 3 2 3 3 3 3 4 4 4 5 8 10 9 10
7 5 5 4 3 3 2 2 1 1 1 1 1 1 1 0 1 1 1 1 1 1 1 1 2 2 3 3 4 3 3 3 2 2 3 3 3 4 4 6 6 7 9
7 6 5 4 3 2 1 1 1 1 1 1 1 1 0 0 1 1 2 1 1 1 1 2 1 2 3 2 2 3 3 3 3 3 2 3 3 3 4 5 5 5 5
7 6 6 4 3 2 1 1 1 1 1 1 1 1 0 1 1 1 0 1 1 1 1 2 1 2 3 2 1 2 2 1 2 3 3 3 3 3 4 5 4 4 4
7 7 5 4 4 2 2 1 0 1 0 0 0 0 0 1 1 2 1 1 1 1 1 2 1 2 2 2 1 1 1 1 2 1 2 2 2 2 2 2 4 4 4
7 8 6 5 4 3 2 2 1 1 1 1 1 1 1 1 1 1 1 1 1 2 2 2 1 2 2 2 2 2 1 1 1 2 2 1 3 2 2 2 2 4 4
7 8 8 6 5 4 2 2 1 0 1 0 0 1 1 1 0 1 1 1 2 2 2 2 2 2 2 3 3 2 1 1 3 2 2 1 1 2 2 2 2 2 3
6 7 8 7 5 4 3 2 2 1 2 0 1 0 1 1 0 1 1 1 1 2 2 2 2 2 2 3 3 3 2 1 1 2 3 2 2 2 2 2 2 2 2
Wind_Direction
106 107 104 98 95 95 96 98 100 98 97 98 102 103 98 97 101 105 108 114 121 123 124 123 118 113 106 102 100 100 105 110 112 113 114 115 118 123 128 133 130 120 125
111 113 107 101 100 98 97 99 101 99 99 100 101 104 100 100 103 104 107 114 121 125 126 125 121 116 111 110 113 115 116 123 128 128 127 126 132 137 140 142 129 126 130
112 115 112 104 104 101 99 99 102 103 102 102 102 103 102 101 103 105 106 112 121 125 125 124 122 119 121 123 125 127 131 136 144 150 150 150 144 146 146 138 133 137 138
113 114 110 111 109 105 103 104 105 107 107 108 107 104 102 101 100 105 107 111 119 122 124 127 126 125 129 132 136 141 150 159 170 179 175 161 152 146 150 146 146 147 151
111 110 111 115 111 109 110 110 109 110 111 111 110 107 104 102 104 107 107 110 116 120 124 128 128 129 135 140 144 159 177 190 203 215 190 153 138 149 150 153 156 156 160
113 114 117 120 117 112 112 114 113 113 113 113 113 111 111 109 106 107 109 110 110 115 123 130 133 134 140 147 158 178 203 222 234 226 193 151 138 152 153 157 159 161 163
114 116 123 125 123 120 117 118 118 116 116 118 118 118 116 115 112 108 107 110 112 117 123 131 139 141 151 163 174 199 225 245 242 235 197 136 138 151 157 159 160 164 165
119 121 126 130 132 131 130 126 126 124 124 126 126 125 126 128 127 122 120 122 121 122 129 138 148 150 165 185 202 226 244 262 233 232 186 138 145 155 158 163 169 171 171
120 124 135 138 137 138 138 134 134 133 134 137 139 141 147 150 148 145 140 138 136 136 144 153 162 175 192 204 223 239 247 254 265 246 182 142 156 160 162 168 175 177 181
119 125 134 138 140 145 143 145 146 145 145 149 154 159 164 168 168 165 160 160 157 157 165 179 189 200 212 219 231 240 246 263 257 236 155 153 161 162 166 171 178 181 183
108 119 128 133 146 148 147 145 155 156 157 160 166 178 187 190 176 174 170 164 170 177 188 199 207 215 221 225 232 237 242 241 241 199 144 154 162 164 169 175 181 184 188
112 115 113 115 128 135 135 137 154 157 159 170 163 177 197 199 165 148 157 174 183 192 202 211 217 220 225 226 223 229 237 228 226 176 146 156 165 168 173 179 185 190 193
119 111 110 106 103 110 115 132 134 142 145 166 157 173 193 182 143 144 165 175 190 195 210 203 211 223 220 223 215 210 229 233 211 160 152 164 170 172 175 180 187 192 195
123 118 113 110 105 97 99 117 139 144 145 144 141 171 174 188 152 138 167 177 182 183 193 205 214 221 225 230 227 232 240 233 195 129 153 165 169 171 176 181 187 192 195
129 128 121 120 119 117 104 150 128 127 122 121 114 134 97 111 95 77 37 334 212 172 184 215 233 235 253 257 251 242 242 254 212 152 146 168 174 176 179 184 188 195 198
128 125 123 122 121 122 136 163 137 134 118 106 114 109 71 60 84 54 282 263 315 266 233 239 255 245 239 250 256 250 240 238 209 164 156 171 181 179 181 187 192 198 201
128 126 128 132 132 135 141 176 150 128 137 133 133 123 135 144 109 117 284 240 273 262 241 238 274 277 263 259 257 260 239 220 218 188 166 164 170 179 182 187 192 199 200
122 118 119 125 126 130 132 156 355 355 77 109 112 121 145 119 112 237 268 259 254 253 248 240 230 269 284 281 275 265 244 213 208 199 178 167 166 170 182 191 193 200 201
124 121 119 107 119 133 146 153 199 125 32 41 64 97 118 118 255 254 231 257 262 261 261 283 349 265 271 271 264 248 230 220 207 201 186 185 172 166 171 185 189 196 198
129 128 126 128 124 142 153 156 163 180 198 151 97 74 99 229 263 282 237 243 290 330 341 345 303 281 270 270 276 273 232 215 206 189 189 184 176 184 185 177 184 195 199
135 136 136 140 133 148 159 174 187 199 216 144 123 105 96 276 282 270 340 330 332 336 311 287 298 300 283 277 290 295 266 227 204 186 186 183 186 187 184 178 181 182 189
142 141 141 145 141 161 164 184 183 166 236 122 52 122 159 253 287 269 302 316 314 288 300 303 317 287 292 308 302 304 300 313 294 215 185 189 193 191 185 188 177 177 186
151 149 148 145 140 150 139 132 91 106 353 49 80 112 327 308 322 324 14 327 316 295 291 288 271 287 291 305 283 264 288 296 295 274 212 196 188 189 182 183 185 184 185
157 151 142 144 140 149 155 156 209 161 206 229 218 148 241 238 260 316 350 343 324 315 314 294 343 300 297 296 282 240 224 212 275 304 276 214 199 200 194 211 195 185 181
157 151 146 144 146 154 168 157 193 274 266 292 348 69 260 234 265 353 28 360 348 330 328 331 331 325 307 301 301 292 253 222 232 241 269 256 228 208 194 195 189 172 171
149 150 147 147 153 160 165 171 192 229 262 302 312 286 258 239 191 76 30 359 351 334 330 329 319 319 308 307 313 319 311 267 248 245 254 253 238 229 183 191 175 165 166